FW8987 Weather Reports


time (UTC)temp
F
wind
direction
speed
knots
gust
knots
rain 1hr
in
rain 24hr
in
rain mn
in
humidity
%
barometer
mb
20260906111040 64 229 1.7 6.1 0.00 0.00 0.00 59 1013.9
20260906110015 64 262 3.5 7.8 0.00 0.00 0.00 59 1013.9
20260906105031 64 261 2.6 8.7 0.00 0.00 0.00 59 1013.7
20260906104027 65 230 1.7 5.2 0.00 0.00 0.00 61 1013.8
20260906103022 63 169 1.7 5.2 0.00 0.00 0.00 62 1013.7
20260906102016 64 247 1.7 6.1 0.00 0.00 0.00 62 1013.6
20260906101052 65 213 2.6 6.1 0.00 0.00 0.00 61 1013.5
20260906100028 65 215 1.7 3.5 0.00 0.00 0.00 61 1013.5
20260906095023 64 197 1.7 3.5 0.00 0.00 0.00 63 1013.5
20260906094038 63 243 3.5 8.7 0.00 0.00 0.00 65 1013.4
20260906093034 63 238 2.6 6.1 0.00 0.00 0.00 65 1013.4
20260906092029 63 257 3.5 6.1 0.00 0.00 0.00 66 1013.4
20260906091024 63 232 1.7 5.2 0.00 0.00 0.00 67 1013.4
20260906090019 62 252 3.5 7.0 0.00 0.00 0.00 68 1013.4
20260906085034 61 226 1.7 5.2 0.00 0.00 0.00 69 1013.3
20260906084029 61 229 2.6 6.1 0.00 0.00 0.00 70 1013.2
20260906083024 60 239 2.6 6.1 0.00 0.00 0.00 72 1013.0
20260906082019 61 243 3.5 6.1 0.00 0.00 0.00 72 1013.0
20260906081036 61 242 2.6 6.1 0.00 0.00 0.00 72 1012.7
20260906080031 60 254 2.6 6.1 0.00 0.00 0.00 74 1012.8
20260906075026 59 238 2.6 5.2 0.00 0.00 0.00 76 1012.6
20260906074021 59 235 3.5 7.8 0.00 0.00 0.00 78 1012.6
20260906073015 58 254 3.5 5.2 0.00 0.00 0.00 80 1012.6
20260906072032 57 249 3.5 5.2 0.00 0.00 0.00 81 1012.4
20260906071026 56 234 2.6 5.2 0.00 0.00 0.00 83 1012.5
20260906070022 56 224 1.7 5.2 0.00 0.00 0.00 84 1012.4
20260906065016 56 259 2.6 6.1 0.00 0.00 0.00 84 1012.2
20260906064032 55 236 1.7 3.5 0.00 0.00 0.00 86 1012.0
20260906063027 54 244 2.6 5.2 0.00 0.00 0.00 87 1011.9
20260906062022 53 240 1.7 6.1 0.00 0.00 0.00 88 1011.7
20260906061016 53 255 1.7 3.5 0.00 0.00 0.00 89 1011.7
20260906060052 52 247 1.7 5.2 0.00 0.00 0.00 91 1011.8
20260906055028 51 252 2.6 5.2 0.00 0.00 0.00 91 1011.8
20260906054023 51 226 1.7 3.5 0.00 0.00 0.00 92 1011.5
20260906053018 50 216 1.7 3.5 0.00 0.00 0.00 93 1011.5
20260906052034 50 230 1.7 3.5 0.00 0.00 0.00 94 1011.3
20260906051028 49 239 1.7 5.2 0.00 0.00 0.00 94 1011.2
20260906050024 49 220 1.7 3.5 0.00 0.00 0.00 95 1011.2
20260906045019 48 251 2.6 3.5 0.00 0.00 0.00 96 1011.2
20260906044035 47 227 1.7 3.5 0.00 0.00 0.00 97 1011.0
20260906043029 48 216 0.9 1.7 0.00 0.00 0.00 96 1010.8
20260906042025 48 245 1.7 2.6 0.00 0.00 0.00 96 1010.6
20260906041020 48 245 2.6 3.5 0.00 0.00 0.00 96 1010.6
20260906040056 48 234 1.7 2.6 0.00 0.00 0.00 96 1010.5
20260906035051 47 245 1.7 3.5 0.00 0.00 0.00 97 1010.5
20260906034026 47 229 1.7 6.1 0.00 0.00 0.00 97 1010.2
20260906033041 47 245 0.9 2.6 0.00 0.00 0.00 97 1010.1
20260906032015 47 227 2.6 3.5 0.00 0.00 0.00 97 1010.2
20260906031051 47 240 0.9 3.5 0.00 0.00 0.00 97 1010.0
20260906030027 48 219 0.9 2.6 0.00 0.00 0.00 97 1009.8
20260906025022 48 236 1.7 3.5 0.00 0.00 0.00 98 1009.7
20260906024018 47 246 2.6 5.2 0.00 0.00 0.00 99 1009.6
20260906023034 47 232 1.7 3.5 0.00 0.00 0.00 99 1009.4
20260906022028 46 237 0.9 3.5 0.00 0.00 0.00 99 1009.4
20260906021023 41 0.0 0.0 0.00 0.00 0.00 99 1009.3
20260906020019 42 0.0 0.0 0.00 0.00 0.00 99 1009.1
20260906015033 45 192 0.0 0.9 0.00 0.00 0.00 99 1009.1
20260906014048 45 204 0.0 0.9 0.00 0.00 0.00 99 1009.1
20260906013023 46 211 0.0 0.9 0.00 0.00 0.00 99 1009.0
20260906012038 44 207 0.0 1.7 0.00 0.00 0.00 99 1008.9
20260906011034 43 0.0 0.0 0.00 0.00 0.00 99 1008.7
20260906010028 44 200 0.0 0.9 0.00 0.00 0.00 99 1008.6
20260906005044 41 0.0 0.0 0.00 0.00 0.00 99 1008.6
20260906004020 41 0.0 0.0 0.00 0.00 0.00 99 1008.5
20260906003035 41 0.0 0.0 0.00 0.00 0.00 99 1008.4
20260906002029 42 0.0 0.0 0.00 0.00 0.00 99 1008.4
20260906001024 43 0.0 0.0 0.00 0.00 0.00 99 1008.4
20260906000040 44 0.0 0.0 0.00 0.00 0.00 99 1008.2
20260905235016 43 0.0 0.0 0.00 0.00 0.00 99 1008.2
20260905234031 43 0.0 0.0 0.00 0.00 0.00 99 1008.1
20260905233046 44 0.0 0.0 0.00 0.00 0.00 99 1008.0
20260905232041 43 0.0 0.0 0.00 0.00 0.00 99 1008.0
20260905231016 44 0.0 0.0 0.00 0.00 0.00 99 1007.8
20260905230031 44 0.0 0.0 0.00 0.00 0.00 99 1008.0
20260905225026 45 0.0 0.0 0.00 0.00 0.00 99 1007.7
20260905224022 46 0.0 0.0 0.00 0.00 0.00 99 1007.7
20260905223019 47 0.0 0.0 0.00 0.00 0.00 99 1007.6
20260905222033 47 0.0 0.0 0.00 0.00 0.00 99 1007.4
20260905221029 47 0.0 0.0 0.00 0.00 0.00 99 1007.4
20260905220024 48 0.0 0.0 0.00 0.00 0.00 99 1007.2
20260905215018 47 0.0 0.0 0.00 0.00 0.00 99 1007.1
20260905214034 47 0.0 0.0 0.00 0.00 0.00 99 1007.0
20260905213150 47 0.0 0.0 0.00 0.00 0.00 99 1007.0
20260905212024 47 0.0 0.0 0.00 0.00 0.00 99 1006.9
20260905211019 47 0.0 0.0 0.00 0.00 0.00 99 1006.7
20260905210036 47 0.0 0.0 0.00 0.00 0.00 99 1006.5
20260905205031 47 0.0 0.0 0.00 0.00 0.00 99 1006.4
20260905204126 48 0.0 0.0 0.00 0.00 0.00 98 1006.3
20260905203021 48 0.0 0.0 0.00 0.00 0.00 98 1006.2
20260905202016 48 0.0 0.0 0.00 0.00 0.00 98 1006.0
20260905201032 49 0.0 0.0 0.00 0.00 0.00 98 1006.0
20260905200028 49 0.0 0.0 0.00 0.00 0.00 98 1005.9
20260905195044 49 0.0 0.0 0.00 0.00 0.00 97 1005.8
20260905194019 49 0.0 0.0 0.00 0.00 0.00 97 1005.7
20260905193054 50 0.0 0.0 0.00 0.00 0.00 97 1005.7
20260905192030 49 195 0.0 0.9 0.00 0.00 0.00 97 1005.5
20260905191025 49 0.0 0.0 0.00 0.00 0.00 97 1005.4
20260905190041 49 0.0 0.0 0.00 0.00 0.00 96 1005.3
20260905185016 50 0.0 0.0 0.00 0.00 0.00 96 1005.2
20260905184031 51 0.0 0.0 0.00 0.00 0.00 96 1005.2
20260905183026 51 0.0 0.0 0.00 0.00 0.00 95 1004.9
20260905182021 51 0.0 0.0 0.00 0.00 0.00 95 1004.9
20260905181037 52 0.0 0.0 0.00 0.00 0.00 94 1004.8
20260905180032 52 0.0 0.0 0.00 0.00 0.00 93 1004.7
20260905175048 53 0.0 0.0 0.00 0.00 0.00 91 1004.4
20260905174043 54 0.0 0.0 0.00 0.00 0.00 89 1004.4
20260905173018 55 0.0 0.0 0.00 0.00 0.00 85 1004.2
20260905172034 56 0.0 0.0 0.00 0.00 0.00 83 1004.1
20260905171029 56 172 0.0 0.9 0.00 0.00 0.00 81 1004.0
20260905170024 57 165 0.0 1.7 0.00 0.00 0.00 81 1003.9
20260905165019 57 171 0.0 0.9 0.00 0.00 0.00 84 1003.8
20260905164034 57 174 0.0 0.9 0.00 0.00 0.00 84 1003.6
20260905163030 58 146 0.9 1.7 0.00 0.00 0.00 82 1003.5
20260905162026 58 154 0.9 2.6 0.00 0.00 0.00 80 1003.4
20260905161021 58 118 0.9 1.7 0.00 0.00 0.00 79 1003.2
20260905160016 58 95 1.7 3.5 0.00 0.00 0.00 78 1003.0
20260905155032 59 111 0.9 2.6 0.00 0.00 0.00 77 1003.0
20260905154027 59 145 0.9 1.7 0.00 0.00 0.00 78 1002.9
20260905153023 59 154 0.9 1.7 0.00 0.00 0.00 78 1002.8
20260905152018 59 140 0.9 1.7 0.00 0.00 0.00 77 1002.6
20260905151033 59 161 0.0 1.7 0.00 0.00 0.00 83 1002.5
20260905150049 58 150 0.9 1.7 0.00 0.00 0.00 82 1002.4
20260905145024 59 115 0.9 3.5 0.00 0.00 0.00 81 1002.4
20260905144020 60 120 1.7 3.5 0.00 0.00 0.00 80 1002.2
20260905143035 60 145 0.9 1.7 0.00 0.00 0.00 81 1002.2
20260905142030 60 109 1.7 3.5 0.00 0.00 0.00 81 1001.9
20260905141025 60 183 1.7 3.5 0.00 0.00 0.00 81 1002.0
20260905140022 59 138 0.9 2.6 0.00 0.00 0.00 83 1001.9
20260905135017 59 131 1.7 3.5 0.00 0.00 0.00 83 1001.8
20260905134033 60 93 2.6 7.8 0.00 0.00 0.00 80 1001.7
20260905133049 61 93 2.6 6.1 0.00 0.00 0.00 79 1001.5
20260905132022 59 116 1.7 3.5 0.00 0.00 0.00 79 1001.4
20260905131058 59 112 1.7 5.2 0.00 0.00 0.00 83 1001.3
20260905130033 58 135 0.9 2.6 0.00 0.00 0.00 85 1001.2
20260905125029 58 113 1.7 5.2 0.00 0.00 0.00 85 1001.1
20260905124044 58 102 2.6 5.2 0.00 0.00 0.00 83 1000.9
20260905123040 59 57 2.6 7.0 0.00 0.00 0.00 78 1000.9
20260905122035 60 70 2.6 8.7 0.00 0.00 0.00 74 1000.8
20260905121030 62 96 0.9 3.5 0.00 0.00 0.00 68 1000.6
20260905120105 62 142 0.0 1.7 0.00 0.00 0.00 68 1000.4
20260905115021 62 153 0.9 2.6 0.00 0.00 0.00 69 1000.2
20260905114016 62 131 0.9 2.6 0.00 0.00 0.00 70 1000.2
20260905113032 62 119 0.9 2.6 0.00 0.00 0.00 69 1000.2
20260905112027 61 143 0.9 2.6 0.00 0.00 0.00 69 1000.1